Starlink 30441

operational
NORAD ID: 57869 Int'l Des: 2023-144 Owner: SPXS Country: US Constellation: starlink
LEOCIRCULAR

Über Starlink 30441

Beschreibung wird geladen...

Live-Position

3D-Globus wird geladen...

Nächste Überflüge

Höhenverlauf

Altitude vs Time

uPlot chart will show altitude changes over time

Zweizeiliger Elementsatz

1 57869U 23144F 25308.56837108 -.00000069 00000-0 99408-5 0 9996
2 57869 43.0021 247.7731 0000729 263.9477 96.1282 15.02541316118741
Epoch: 4. Nov. 2025 • Age: 7 hours

Aktueller Status

Höhe 558.8 km
Geschwindigkeit 7.59 km/s
Subsatellitenpunkt 21.11°N, 76.16°W
Startdatum 16. Sept. 2023
Alter 2.1 years
Typ internet

Technische Details

Klassifizierung Payload
Masse 730.00 kg
Trockenmasse 700.00 kg
Gesamtmasse 730.00 kg
Länge 0.30 m
Durchmesser 4.10 m
Spannweite 29.00 m
Form Box + pan
Hersteller SPXS
Bus-Typ Starlink V2M
Phasenstatus In Orbit
Besitzer/Staat SPXS/US

Große Konstellationen

Loading constellations...